Weather History for St. George, UT

Change the Weather History Date:

Sunday, June 16, 2013

  Actual Average Record
Temperature  
Mean Temperature 82 °F -  
Max Temperature 96 °F 97 °F 108 °F (1940)
Min Temperature 69 °F 61 °F 46 °F (1944)
Cooling Degree Days 18    
Growing Degree Days 32 (Base 50)    
Moisture  
Dew Point 27 °F    
Average Humidity 12    
Maximum Humidity 18    
Minimum Humidity 10    
Precipitation  
Precipitation 0.00 in - - ()
Sea Level Pressure  
Sea Level Pressure 29.98 in    
Wind  
Wind Speed 7 mph (WSW)    
Max Wind Speed 20 mph    
Max Gust Speed 32 mph    
Visibility 10 miles    
Events      
Averages and records for this station are not official NWS values.
T = Trace of Precipitation, MM = Missing Value Source: NWS Daily Summary

Daily Weather History Graph

Daily Weather History Graph

Search for Another Location

Airport:

Trip Planner

Search our weather history database for the weather conditions in past years. The results will help you decide how hot, cold, wet, or windy it might be!

Date:

Astronomy

Jun. 16, 2013 Rise Set
Actual Time 6:14 AM MDT 8:56 PM MDT
Civil Twilight 5:43 AM MDT 9:27 PM MDT
Nautical Twilight 5:04 AM MDT 10:05 PM MDT
Astronomical Twilight 4:21 AM MDT 10:49 PM MDT
Moon 1:44 PM MDT (6/16) 1:12 AM MDT (6/16)
Length of Visible Light 15h 44m
Length of Day
14h 42m
Waxing Crescent, 50% of the Moon is Illuminated
Jun 16
Waxing Crescent
Jun 23
Full
Jun 29
Last Quarter
Jul 8
New
Jul 15
First Quarter

Hourly Weather History & Observations

Time (MDT) Temp. Dew Point Humidity Pressure Visibility Wind Dir Wind Speed Gust Speed Precip Events Conditions
12:15 AM 84.2 °F 24.8 °F 11% 29.93 in 10.0 mi South 9.2 mph - N/A   Clear
12:35 AM 82.4 °F 23.0 °F 11% 29.93 in 10.0 mi Calm Calm - N/A   Clear
12:55 AM 82.4 °F 21.2 °F 10% 29.94 in 10.0 mi Calm Calm - N/A   Clear
1:15 AM 82.4 °F 21.2 °F 10% 29.94 in 10.0 mi SW 6.9 mph - N/A   Clear
1:35 AM 80.6 °F 21.2 °F 11% 29.94 in 10.0 mi ESE 5.8 mph - N/A   Clear
1:55 AM 80.6 °F 21.2 °F 11% 29.94 in 10.0 mi ESE 6.9 mph - N/A   Clear
2:15 AM 75.2 °F 19.4 °F 12% 29.94 in 10.0 mi ESE 5.8 mph - N/A   Clear
2:35 AM 75.2 °F 21.2 °F 13% 29.94 in 10.0 mi SE 9.2 mph - N/A   Clear
2:55 AM 75.2 °F 23.0 °F 14% 29.95 in 10.0 mi SE 10.4 mph - N/A   Clear
3:15 AM 73.4 °F 23.0 °F 15% 29.95 in 10.0 mi SE 9.2 mph - N/A   Clear
3:35 AM 73.4 °F 24.8 °F 16% 29.95 in 10.0 mi SE 8.1 mph - N/A   Clear
3:55 AM 73.4 °F 24.8 °F 16% 29.96 in 10.0 mi SE 8.1 mph - N/A   Clear
4:15 AM 75.2 °F 24.8 °F 15% 29.96 in 10.0 mi Calm Calm - N/A   Clear
4:35 AM 73.4 °F 24.8 °F 16% 29.96 in 10.0 mi East 4.6 mph - N/A   Clear
4:55 AM 73.4 °F 24.8 °F 16% 29.97 in 10.0 mi ENE 5.8 mph - N/A   Clear
5:15 AM 71.6 °F 24.8 °F 17% 29.97 in 10.0 mi ESE 10.4 mph - N/A   Clear
5:35 AM 69.8 °F 24.8 °F 18% 29.98 in 10.0 mi ESE 9.2 mph - N/A   Clear
5:55 AM 69.8 °F 24.8 °F 18% 29.98 in 10.0 mi ESE 5.8 mph - N/A   Clear
6:15 AM 71.6 °F 24.8 °F 17% 29.99 in 10.0 mi NE 5.8 mph - N/A   Clear
6:35 AM 69.8 °F 24.8 °F 18% 29.99 in 10.0 mi East 6.9 mph - N/A   Clear
6:55 AM 69.8 °F 24.8 °F 18% 30.00 in 10.0 mi East 8.1 mph - N/A   Clear
7:15 AM 71.6 °F 24.8 °F 17% 30.01 in 10.0 mi ESE 8.1 mph - N/A   Clear
7:35 AM 73.4 °F 26.6 °F 18% 30.02 in 10.0 mi North 5.8 mph - N/A   Clear
7:55 AM 75.2 °F 26.6 °F 17% 30.02 in 10.0 mi East 8.1 mph - N/A   Clear
8:15 AM 78.8 °F 26.6 °F 15% 30.03 in 10.0 mi ESE 5.8 mph - N/A   Clear
8:35 AM 77.0 °F 26.6 °F 16% 30.03 in 10.0 mi SSW 4.6 mph - N/A   Clear
8:55 AM 75.2 °F 24.8 °F 15% 30.04 in 10.0 mi SW 3.5 mph - N/A   Clear
9:15 AM 78.8 °F 26.6 °F 15% 30.04 in 10.0 mi SSW 4.6 mph - N/A   Clear
9:35 AM 80.6 °F 26.6 °F 14% 30.04 in 10.0 mi Calm Calm - N/A   Clear
9:55 AM 82.4 °F 28.4 °F 14% 30.04 in 10.0 mi NW 3.5 mph - N/A   Clear
10:15 AM 82.4 °F 30.2 °F 15% 30.04 in 10.0 mi WNW 5.8 mph - N/A   Clear
10:35 AM 84.2 °F 30.2 °F 14% 30.04 in 10.0 mi NNW 3.5 mph - N/A   Clear
10:55 AM 87.8 °F 28.4 °F 12% 30.04 in 10.0 mi Calm Calm - N/A   Clear
11:15 AM 87.8 °F 28.4 °F 12% 30.03 in 10.0 mi WNW 5.8 mph - N/A   Clear
11:35 AM 89.6 °F 26.6 °F 10% 30.03 in 10.0 mi WNW 9.2 mph - N/A   Clear
11:55 AM 89.6 °F 28.4 °F 11% 30.03 in 10.0 mi West 8.1 mph - N/A   Clear
12:15 PM 91.4 °F 28.4 °F 10% 30.03 in 10.0 mi West 10.4 mph - N/A   Clear
12:35 PM 91.4 °F 28.4 °F 10% 30.03 in 10.0 mi NW 3.5 mph - N/A   Clear
1:15 PM 91.4 °F 28.4 °F 10% 30.01 in 10.0 mi SW 19.6 mph 25.3 mph N/A   Clear
1:35 PM 95.0 °F 30.2 °F 10% 30.01 in 10.0 mi SSW 17.3 mph 32.2 mph N/A   Clear
1:55 PM 95.0 °F 30.2 °F 10% 30.00 in 10.0 mi West 12.7 mph 18.4 mph N/A   Clear
2:15 PM 93.2 °F 30.2 °F 11% 30.00 in 10.0 mi NW 8.1 mph 23.0 mph N/A   Clear
2:35 PM 93.2 °F 30.2 °F 11% 29.99 in 10.0 mi West 15.0 mph - N/A   Clear
2:55 PM 95.0 °F 30.2 °F 10% 29.99 in 10.0 mi WNW 9.2 mph - N/A   Clear
3:15 PM 95.0 °F 30.2 °F 10% 29.98 in 10.0 mi NW 8.1 mph - N/A   Clear
3:35 PM 96.8 °F 30.2 °F 10% 29.97 in 10.0 mi SW 17.3 mph 24.2 mph N/A   Clear
3:55 PM 96.8 °F 32.0 °F 10% 29.96 in 10.0 mi West 12.7 mph 20.7 mph N/A   Clear
4:15 PM 96.8 °F 30.2 °F 10% 29.95 in 10.0 mi West 12.7 mph 20.7 mph N/A   Clear
4:35 PM 95.0 °F 30.2 °F 10% - 10.0 mi SW 5.8 mph - N/A   Clear
4:55 PM 96.8 °F 32.0 °F 10% 29.94 in 10.0 mi WSW 15.0 mph - N/A   Clear
5:15 PM 96.8 °F 32.0 °F 10% 29.94 in 10.0 mi West 12.7 mph 17.3 mph N/A   Clear
5:35 PM 96.8 °F 32.0 °F 10% 29.94 in 10.0 mi WNW 12.7 mph 18.4 mph N/A   Clear
5:55 PM 96.8 °F 32.0 °F 10% 29.93 in 10.0 mi WSW 16.1 mph 20.7 mph N/A   Clear
6:15 PM 96.8 °F 32.0 °F 10% 29.93 in 10.0 mi West 12.7 mph 18.4 mph N/A   Clear
6:35 PM 96.8 °F 30.2 °F 10% 29.93 in 10.0 mi West 12.7 mph - N/A   Clear
6:55 PM 96.8 °F 30.2 °F 10% 29.93 in 10.0 mi WNW 15.0 mph 20.7 mph N/A   Clear
7:15 PM 95.0 °F 30.2 °F 10% 29.93 in 10.0 mi WSW 15.0 mph 19.6 mph N/A   Clear
7:35 PM 95.0 °F 30.2 °F 10% 29.93 in 10.0 mi West 15.0 mph 21.9 mph N/A   Clear
7:55 PM 93.2 °F 30.2 °F 11% 29.93 in 10.0 mi West 13.8 mph - N/A   Clear
8:15 PM 93.2 °F 28.4 °F 10% 29.94 in 10.0 mi West 12.7 mph - N/A   Clear
8:35 PM 93.2 °F 28.4 °F 10% 29.94 in 10.0 mi West 9.2 mph - N/A   Clear
8:55 PM 91.4 °F 28.4 °F 10% 29.94 in 10.0 mi West 10.4 mph - N/A   Clear
9:15 PM 91.4 °F 26.6 °F 10% 29.95 in 10.0 mi West 9.2 mph - N/A   Clear
9:35 PM 89.6 °F 26.6 °F 10% 29.95 in 10.0 mi West 9.2 mph - N/A   Clear
9:55 PM 89.6 °F 26.6 °F 10% 29.95 in 10.0 mi WSW 5.8 mph - N/A   Clear
10:15 PM 82.4 °F 23.0 °F 11% 29.96 in 10.0 mi South 6.9 mph - N/A   Clear
10:35 PM 84.2 °F 21.2 °F 10% 29.97 in 10.0 mi SSW 4.6 mph - N/A   Clear
10:55 PM 80.6 °F 21.2 °F 11% 29.97 in 10.0 mi SE 3.5 mph - N/A   Clear
11:55 PM 78.8 °F 19.4 °F 11% 29.97 in 10.0 mi Calm Calm - N/A   Clear